GW0085 Weather Reports


time (UTC)temp
C
wind
direction
speed
KPH
gust
KPH
rain 1hr
cm
rain 24hr
cm
rain mn
cm
humidity
%
barometer
mb
20260504231557 13 161 3.2 6.4 0.00 0.03 0.03 70 1005.8
20260504230056 15 0 0.0 3.2 0.00 0.03 0.03 66 1005.6
20260504224556 15 232 1.6 4.8 0.00 0.03 0.03 61 1005.4
20260504223102 15 246 0.0 9.7 0.00 0.03 0.03 60 1005.3
20260504221608 15 271 3.2 11.3 0.00 0.03 0.03 59 1005.3
20260504220136 15 277 4.8 17.7 0.00 0.03 0.03 58 1005.2
20260504214554 16 196 8.0 16.1 0.00 0.03 0.03 58 1005.0
20260504213117 16 198 4.8 14.5 0.00 0.03 0.03 59 1004.9
20260504211557 16 171 4.8 19.3 0.00 0.03 0.03 59 1005.0
20260504204611 16 269 4.8 16.1 0.00 0.03 0.03 60 1005.0
20260504203057 16 136 6.4 14.5 0.00 0.03 0.03 58 1004.7
20260504201608 16 236 3.2 25.7 0.00 0.03 0.03 61 1004.8
20260504200109 15 217 6.4 19.3 0.00 0.03 0.03 62 1004.9
20260504194559 15 198 8.0 16.1 0.00 0.10 0.03 65 1004.7
20260504193059 14 260 9.7 17.7 0.00 0.10 0.03 68 1004.9
20260504191556 13 259 3.2 12.9 0.03 0.10 0.03 76 1005.2
20260504190057 12 0 4.8 14.5 0.03 0.10 0.03 80 1005.4
20260504184601 11 254 4.8 14.5 0.03 0.28 0.03 80 1005.7
20260504183104 11 189 3.2 19.3 0.03 0.28 0.03 76 1006.0
20260504181604 12 259 6.4 19.3 0.00 0.25 0.00 69 1006.1
20260504180100 13 263 4.8 14.5 0.00 0.25 0.00 63 1005.7
20260504174556 12 193 6.4 17.7 0.00 0.43 0.00 59 1005.4
20260504173101 12 242 9.7 17.7 0.00 0.43 0.00 61 1005.3
20260504171558 12 187 12.9 27.4 0.00 0.43 0.00 60 1005.4
20260504081557 0 300 1.6 4.8 0.00 2.26 0.00 93 1006.4
20260504044556 1 0 1.6 3.2 0.00 2.54 0.00 90 1005.1
20260504043059 1 343 1.6 3.2 0.00 2.54 0.00 89 1005.1
20260504041557 1 343 1.6 3.2 0.00 2.54 0.00 88 1004.9
20260504040058 2 344 0.0 3.2 0.00 2.54 0.00 88 1004.9
20260504034555 2 344 0.0 3.2 0.00 2.54 2.54 87 1004.7
20260504033059 2 0 1.6 3.2 0.00 2.54 2.54 85 1004.7
20260504031557 3 280 1.6 4.8 0.00 2.54 2.54 83 1004.5
20260504030056 3 300 1.6 14.5 0.00 2.54 2.54 80 1004.4
20260504024558 3 349 3.2 12.9 0.00 2.54 2.54 80 1004.2
20260504023056 3 299 1.6 12.9 0.00 2.54 2.54 80 1004.1
20260504021557 4 302 1.6 11.3 0.00 2.54 2.54 81 1004.0
20260504020131 4 301 3.2 12.9 0.00 2.54 2.54 83 1004.1
20260504014604 5 286 4.8 12.9 0.00 2.54 2.54 85 1003.9
20260504013116 5 288 1.6 11.3 0.00 2.54 2.54 86 1003.7
20260504011558 5 299 1.6 12.9 0.00 2.54 2.54 89 1003.4
20260504010057 5 276 1.6 4.8 0.00 2.54 2.54 92 1003.1
20260504004630 5 296 0.0 6.4 0.00 2.54 2.54 91 1002.9
20260504003101 6 309 0.0 1.6 0.00 2.54 2.54 91 1002.5
20260504001621 6 0 0.0 3.2 0.00 2.54 2.54 90 1002.3
20260504000120 7 0 0.0 6.4 0.00 2.54 2.54 89 1002.1
20260503234606 7 300 1.6 9.7 0.00 2.54 2.54 87 1001.9
20260503233103 7 323 3.2 12.9 0.00 2.54 2.54 87 1001.8